Weather History for KLRU - October, 2012

Change the Weather History Date:

Thursday, October 4, 2012

  Actual Average Record
Temperature  
Mean Temperature 72 °F -  
Max Temperature 89 °F 78 °F 89 °F (2006)
Min Temperature 55 °F 56 °F 46 °F (2002)
Cooling Degree Days 7    
Growing Degree Days 22 (Base 50)    
Moisture  
Dew Point 30 °F    
Average Humidity 21    
Maximum Humidity 41    
Minimum Humidity 11    
Precipitation  
Precipitation 0.00 in - - ()
Sea Level Pressure  
Sea Level Pressure 30.18 in    
Wind  
Wind Speed 8 mph (West)    
Max Wind Speed 17 mph    
Max Gust Speed 21 mph    
Visibility 10 miles    
Events      
Averages and records for this station are not official NWS values.
T = Trace of Precipitation, MM = Missing Value Source: NWS Daily Summary

Daily Weather History Graph

Daily Weather History Graph

Search for Another Location

Airport or City:

Trip Planner

Search our weather history database for the weather conditions in past years. The results will help you decide how hot, cold, wet, or windy it might be!

Date:

Astronomy

Oct. 04, 2012 Rise Set
Actual Time 7:04 AM MDT 6:47 PM MDT
Civil Twilight 6:39 AM MDT 7:12 PM MDT
Nautical Twilight 6:11 AM MDT 7:40 PM MDT
Astronomical Twilight 5:42 AM MDT 8:09 PM MDT
Moon 9:41 PM MDT (10/4) 11:08 AM MDT (10/4)
Length of Visible Light 12h 32m
Length of Day
11h 43m
Waning Gibbous, 81% of the Moon is Illuminated
Oct 4
Waning Gibbous
Oct 8
Last Quarter
Oct 15
New
Oct 21
First Quarter
Oct 29
Full

Hourly Weather History & Observations

Time (MDT) Temp. Dew Point Humidity Pressure Visibility Wind Dir Wind Speed Gust Speed Precip Events Conditions
12:15 AM 69.3 °F 27.7 °F 21% 30.12 in 10.0 mi West 9.2 mph - N/A   Clear
12:35 AM 67.3 °F 28.2 °F 23% 30.13 in 10.0 mi West 9.2 mph - N/A   Clear
1:15 AM 66.2 °F 28.0 °F 24% 30.14 in 10.0 mi West 6.9 mph - N/A   Clear
1:35 AM 63.9 °F 28.8 °F 27% 30.13 in 10.0 mi West 9.2 mph - N/A   Clear
1:55 AM 70.0 °F 27.9 °F 21% 30.14 in 10.0 mi NW 8.1 mph - N/A   Clear
2:15 AM 69.8 °F 28.2 °F 21% 30.14 in 10.0 mi WNW 8.1 mph - N/A   Clear
2:35 AM 69.4 °F 28.2 °F 21% 30.14 in 10.0 mi WNW 9.2 mph - N/A   Clear
2:55 AM 69.4 °F 28.2 °F 21% 30.14 in 10.0 mi WNW 9.2 mph - N/A   Clear
3:35 AM 68.5 °F 28.4 °F 22% 30.14 in 10.0 mi West 11.5 mph - N/A   Clear
3:55 AM 65.7 °F 28.8 °F 25% 30.14 in 10.0 mi NW 4.6 mph - N/A   Clear
4:15 AM 63.7 °F 29.1 °F 27% 30.15 in 10.0 mi NW 8.1 mph - N/A   Clear
4:35 AM 62.4 °F 29.1 °F 28% 30.15 in 10.0 mi NNW 5.8 mph - N/A   Clear
4:55 AM 62.6 °F 29.3 °F 28% 30.16 in 10.0 mi NNW 10.4 mph - N/A   Clear
5:15 AM 62.8 °F 29.3 °F 28% 30.16 in 10.0 mi WNW 6.9 mph - N/A   Clear
5:35 AM 62.1 °F 29.3 °F 29% 30.17 in 10.0 mi WNW 8.1 mph - N/A   Clear
5:55 AM 61.2 °F 29.7 °F 30% 30.17 in 10.0 mi WNW 5.8 mph - N/A   Clear
6:15 AM 59.7 °F 29.7 °F 32% 30.18 in 10.0 mi WNW 5.8 mph - N/A   Clear
6:35 AM 57.9 °F 29.7 °F 34% 30.18 in 10.0 mi NNE 6.9 mph - N/A   Clear
6:55 AM 57.6 °F 31.3 °F 37% 30.19 in 10.0 mi NNE 4.6 mph - N/A   Clear
7:15 AM 57.0 °F 31.1 °F 37% 30.20 in 10.0 mi NE 3.5 mph - N/A   Clear
7:35 AM 55.4 °F 31.8 °F 41% 30.21 in 10.0 mi ENE 3.5 mph - N/A   Clear
7:55 AM 59.9 °F 32.0 °F 35% 30.21 in 10.0 mi NE 5.8 mph - N/A   Clear
8:15 AM 62.4 °F 32.0 °F 32% 30.23 in 10.0 mi NE 3.5 mph - N/A   Clear
8:35 AM 65.1 °F 31.6 °F 29% 30.23 in 10.0 mi Calm Calm - N/A   Clear
8:55 AM 68.4 °F 32.9 °F 27% 30.24 in 10.0 mi Calm Calm - N/A   Clear
9:15 AM 70.7 °F 32.5 °F 24% 30.24 in 10.0 mi SW 3.5 mph - N/A   Clear
9:35 AM 74.5 °F 31.8 °F 21% 30.24 in 10.0 mi WSW 4.6 mph - N/A   Clear
10:15 AM 77.9 °F 30.4 °F 18% 30.25 in 10.0 mi Calm Calm - N/A   Clear
10:35 AM 78.8 °F 32.2 °F 18% 30.24 in 10.0 mi Calm Calm - N/A   Clear
10:55 AM 81.0 °F 29.5 °F 15% 30.25 in 10.0 mi WSW 3.5 mph - N/A   Clear
11:15 AM 80.8 °F 28.6 °F 15% 30.24 in 10.0 mi Calm Calm - N/A   Clear
11:35 AM 82.0 °F 28.8 °F 14% 30.24 in 10.0 mi WSW 5.8 mph - N/A   Clear
11:55 AM 82.9 °F 28.6 °F 14% 30.24 in 10.0 mi West 4.6 mph - N/A   Clear
12:15 PM 84.6 °F 28.4 °F 13% 30.24 in 10.0 mi WSW 6.9 mph - N/A   Clear
12:35 PM 85.5 °F 28.4 °F 13% 30.23 in 10.0 mi West 10.4 mph - N/A   Clear
12:55 PM 85.8 °F 28.6 °F 13% 30.23 in 10.0 mi WSW 10.4 mph 17.3 mph N/A   Clear
1:15 PM 86.9 °F 28.6 °F 12% 30.22 in 10.0 mi WSW 11.5 mph 16.1 mph N/A   Clear
1:35 PM 87.6 °F 28.2 °F 12% 30.20 in 10.0 mi West 12.7 mph 18.4 mph N/A   Clear
1:55 PM 87.8 °F 28.9 °F 12% 30.19 in 10.0 mi West 11.5 mph 18.4 mph N/A   Clear
2:15 PM 89.1 °F 28.6 °F 11% 30.18 in 10.0 mi SSW 12.7 mph 18.4 mph N/A   Clear
2:35 PM 89.1 °F 29.1 °F 12% 30.18 in 10.0 mi SW 13.8 mph - N/A   Clear
2:55 PM 89.1 °F 28.9 °F 12% 30.16 in 10.0 mi SSW 13.8 mph 17.3 mph N/A   Clear
3:15 PM 88.5 °F 28.0 °F 11% 30.16 in 10.0 mi SW 5.8 mph 16.1 mph N/A   Clear
3:35 PM 88.0 °F 28.4 °F 12% 30.16 in 10.0 mi WSW 17.3 mph 20.7 mph N/A   Clear
3:55 PM 88.2 °F 29.1 °F 12% 30.15 in 10.0 mi WSW 10.4 mph 17.3 mph N/A   Clear
4:15 PM 88.7 °F 30.2 °F 12% 30.15 in 10.0 mi WSW 15.0 mph 20.7 mph N/A   Clear
4:35 PM 88.3 °F 30.9 °F 13% 30.14 in 10.0 mi SW 13.8 mph 17.3 mph N/A   Clear
4:55 PM 88.3 °F 31.1 °F 13% 30.14 in 10.0 mi SW 13.8 mph 18.4 mph N/A   Clear
5:15 PM 87.8 °F 30.9 °F 13% 30.14 in 10.0 mi SW 13.8 mph 20.7 mph N/A   Clear
5:35 PM 87.4 °F 30.0 °F 13% 30.14 in 10.0 mi WSW 11.5 mph 20.7 mph N/A   Clear
5:55 PM 86.5 °F 29.8 °F 13% 30.14 in 10.0 mi WSW 15.0 mph - N/A   Clear
6:15 PM 85.6 °F 29.5 °F 13% 30.14 in 10.0 mi SW 13.8 mph - N/A   Clear
6:55 PM 82.4 °F 29.3 °F 15% 30.14 in 10.0 mi SW 8.1 mph - N/A   Clear
7:15 PM 80.1 °F 29.3 °F 16% 30.14 in 10.0 mi SW 6.9 mph - N/A   Clear
7:35 PM 77.7 °F 30.2 °F 18% 30.14 in 10.0 mi WSW 6.9 mph - N/A   Clear
8:15 PM 75.6 °F 30.9 °F 19% 30.15 in 10.0 mi WSW 6.9 mph - N/A   Clear
8:35 PM 74.1 °F 31.1 °F 21% 30.15 in 10.0 mi WSW 6.9 mph - N/A   Clear
9:15 PM 68.5 °F 31.6 °F 25% 30.16 in 10.0 mi West 6.9 mph - N/A   Clear
9:35 PM 67.6 °F 31.5 °F 26% 30.15 in 10.0 mi West 9.2 mph - N/A   Clear
9:55 PM 67.5 °F 31.5 °F 26% 30.16 in 10.0 mi West 9.2 mph - N/A   Clear
10:15 PM 68.0 °F 31.1 °F 25% 30.16 in 10.0 mi West 6.9 mph - N/A   Clear
10:35 PM 65.8 °F 31.5 °F 28% 30.16 in 10.0 mi West 8.1 mph - N/A   Clear
10:55 PM 65.3 °F 31.3 °F 28% 30.16 in 10.0 mi West 8.1 mph - N/A   Clear
11:15 PM 65.3 °F 31.5 °F 28% 30.16 in 10.0 mi WNW 9.2 mph - N/A   Clear
11:35 PM 65.8 °F 31.3 °F 28% 30.16 in 10.0 mi West 9.2 mph - N/A   Clear